Temp
14 14 13 13 13 12 12 11 11 10 10 10 10 10 9 9 9 9 9 9 9 9 9 8 8 8 8 9 9 8 8 9 8 8 8 8 9 9 9 9 9 9 9
13 14 13 13 12 12 12 11 11 10 10 9 9 9 9 9 9 9 9 9 9 8 8 8 8 8 8 9 8 8 8 8 8 9 9 9 9 9 9 9 9 9 9
14 13 13 13 12 12 12 11 11 10 10 9 9 9 9 9 9 9 9 9 8 8 8 8 8 8 8 8 8 8 8 8 8 8 9 9 9 9 9 9 9 9 9
14 13 13 13 12 12 11 11 11 10 10 10 9 9 9 9 9 9 9 8 8 8 8 8 8 8 8 8 8 8 8 8 8 8 8 9 9 9 9 9 9 9 9
13 13 12 12 12 11 11 11 11 10 10 10 9 9 9 9 9 8 8 8 8 8 8 8 8 8 8 8 8 8 8 8 8 8 8 9 9 9 9 9 9 9 9
12 12 12 12 12 11 11 10 10 11 10 10 9 9 9 9 8 8 8 8 8 8 8 8 8 8 8 8 8 8 8 8 8 8 8 9 9 9 9 9 8 8 9
12 11 11 11 11 11 11 10 10 10 10 10 10 9 9 9 9 8 8 8 8 8 8 8 9 8 8 8 8 8 8 8 8 8 8 8 8 9 9 8 8 8 8
11 11 11 11 11 11 11 10 10 10 10 10 9 9 9 9 9 8 8 8 8 8 8 8 9 9 8 8 8 8 8 8 8 8 8 8 8 8 8 8 8 8 8
11 11 11 11 10 11 10 10 10 10 10 10 9 9 9 9 9 9 8 8 8 8 9 9 8 8 8 8 8 8 8 8 8 8 8 8 7 8 8 8 8 8 8
11 10 10 10 10 10 10 10 9 9 9 10 10 9 9 9 9 9 9 8 8 8 9 9 9 8 8 7 7 8 7 7 7 7 7 7 7 7 7 8 8 8 8
11 10 10 9 10 9 9 9 9 9 10 10 10 10 9 9 9 9 8 8 8 8 8 8 8 8 8 8 8 8 8 7 7 7 7 7 7 7 7 7 8 8 8
11 10 10 10 9 9 9 9 9 9 9 10 10 10 9 9 9 9 9 8 8 8 8 8 8 8 8 7 7 7 7 7 7 7 7 7 7 7 7 7 7 7 7
10 10 10 10 10 9 9 9 9 9 9 9 10 10 9 9 9 9 9 9 8 8 8 8 8 8 8 7 7 7 7 7 7 7 7 7 7 7 6 6 7 7 7
10 10 10 10 10 10 10 10 10 10 9 9 9 9 9 9 9 9 9 8 8 8 8 8 7 7 7 7 7 7 7 7 6 6 6 6 6 6 6 6 6 7 7
10 10 10 10 10 10 10 10 9 9 9 9 9 9 9 9 9 8 8 8 8 7 7 7 7 7 7 7 7 7 6 6 6 6 6 6 6 6 5 6 6 6 6
9 9 9 9 9 9 10 10 10 9 9 9 8 8 8 8 8 8 8 8 8 7 7 7 7 6 6 6 6 6 6 6 6 6 6 6 6 6 5 5 5 5 6
9 9 10 9 9 9 9 9 9 9 9 9 8 8 8 7 8 8 8 7 7 7 7 7 7 6 6 6 6 6 6 6 5 5 5 5 5 5 5 5 5 5 5
10 10 9 9 8 8 9 9 9 9 9 8 8 8 7 7 7 7 8 7 7 7 6 6 6 6 6 6 6 6 5 5 5 5 5 5 5 5 5 4 4 4 4
10 10 10 10 9 9 7 7 8 8 8 8 8 8 7 7 6 7 7 7 7 7 7 6 6 6 5 5 5 5 5 5 5 5 4 4 4 4 4 4 4 4 4
10 10 10 10 10 9 9 8 7 7 8 8 8 8 8 7 6 6 6 6 6 6 6 6 5 5 5 4 5 5 5 5 5 4 4 4 4 4 3 3 3 3 3
9 9 10 10 10 10 9 9 8 8 7 7 7 8 8 8 7 6 4 5 5 5 5 5 5 4 4 5 4 4 4 4 4 4 4 4 4 3 3 3 3 2 2
8 8 9 9 9 9 9 9 9 7 7 7 6 6 7 7 7 7 5 4 3 4 5 5 5 4 4 4 4 4 4 4 4 4 3 3 3 3 2 2 2 2 2
7 7 7 7 8 8 8 9 7 8 7 7 7 7 7 7 7 7 6 5 4 5 4 4 5 4 5 4 4 3 4 4 3 3 3 3 2 2 2 2 2 1 1
7 7 6 6 6 7 7 8 8 6 7 7 7 6 6 6 5 5 6 4 5 5 4 3 4 3 4 4 3 3 3 3 3 2 2 2 2 2 1 1 1 0 -0
5 5 4 5 5 5 6 6 5 5 5 5 6 6 6 5 5 5 4 4 4 4 3 2 3 3 3 3 3 3 3 2 2 2 2 1 1 1 0 0 -0 -0 -1
3 3 3 3 3 4 4 4 4 3 5 4 5 5 5 5 4 5 4 4 4 4 4 2 2 2 1 2 3 3 3 2 2 1 0 -0 -0 -0 -1 -1 -1 -2 -2
Height
3149 3150 3151 3152 3153 3152 3152 3154 3156 3157 3157 3159 3160 3162 3163 3164 3165 3165 3166 3166 3167 3167 3168 3169 3169 3170 3170 3171 3170 3171 3170 3171 3171 3171 3171 3170 3170 3170 3169 3169 3168 3168 3167
3149 3151 3151 3152 3152 3152 3152 3155 3157 3157 3158 3159 3160 3162 3163 3164 3165 3166 3166 3167 3167 3168 3168 3169 3169 3169 3170 3171 3171 3171 3171 3171 3171 3171 3171 3171 3171 3171 3170 3170 3169 3169 3168
3150 3150 3151 3151 3152 3153 3152 3155 3156 3158 3159 3160 3161 3162 3162 3164 3165 3165 3166 3167 3167 3168 3168 3168 3168 3170 3171 3170 3171 3171 3172 3171 3172 3172 3172 3172 3172 3171 3171 3170 3170 3169 3168
3149 3150 3151 3151 3151 3152 3151 3154 3155 3156 3158 3159 3160 3161 3163 3164 3164 3165 3165 3166 3166 3166 3167 3168 3168 3169 3170 3170 3170 3171 3171 3171 3171 3172 3173 3173 3172 3172 3172 3171 3170 3169 3168
3147 3149 3151 3151 3152 3152 3151 3152 3154 3155 3157 3158 3160 3161 3162 3162 3163 3164 3164 3165 3165 3165 3166 3166 3167 3168 3169 3170 3170 3170 3170 3171 3172 3172 3173 3173 3173 3172 3172 3171 3170 3169 3168
3149 3149 3150 3151 3152 3152 3152 3151 3154 3154 3156 3157 3158 3159 3160 3161 3162 3162 3163 3164 3164 3164 3164 3165 3165 3166 3168 3170 3170 3171 3169 3170 3171 3172 3173 3173 3173 3173 3172 3172 3170 3168 3167
3148 3150 3151 3151 3152 3152 3151 3151 3153 3154 3155 3156 3157 3158 3158 3159 3161 3162 3162 3162 3162 3163 3164 3164 3164 3165 3167 3168 3169 3171 3170 3169 3170 3171 3172 3172 3172 3171 3171 3171 3169 3167 3166
3147 3148 3149 3150 3151 3151 3150 3151 3152 3153 3154 3156 3157 3157 3157 3158 3159 3160 3161 3160 3160 3161 3163 3164 3164 3164 3166 3167 3168 3170 3170 3169 3170 3170 3171 3171 3171 3170 3170 3170 3169 3168 3167
3143 3144 3145 3145 3146 3147 3148 3149 3150 3151 3152 3154 3155 3156 3156 3156 3157 3158 3159 3159 3159 3159 3161 3162 3163 3164 3166 3166 3167 3168 3169 3169 3169 3170 3170 3170 3170 3170 3170 3170 3169 3167 3167
3140 3140 3140 3141 3141 3142 3144 3146 3147 3148 3150 3151 3152 3154 3154 3154 3155 3155 3156 3156 3157 3158 3159 3160 3161 3162 3163 3165 3166 3167 3167 3168 3168 3168 3169 3169 3170 3169 3169 3168 3167 3167 3166
3137 3137 3138 3138 3138 3138 3140 3142 3144 3146 3147 3148 3149 3150 3151 3152 3153 3153 3153 3154 3154 3156 3157 3158 3159 3160 3161 3162 3163 3165 3165 3166 3167 3168 3168 3168 3168 3168 3167 3167 3166 3166 3165
3134 3134 3134 3134 3134 3134 3135 3137 3140 3143 3144 3145 3146 3147 3149 3149 3150 3150 3150 3151 3151 3153 3155 3156 3156 3157 3158 3159 3161 3162 3163 3163 3164 3164 3165 3165 3166 3166 3165 3165 3165 3164 3163
3130 3130 3130 3131 3131 3131 3131 3133 3136 3138 3140 3141 3143 3144 3145 3146 3147 3148 3148 3148 3149 3150 3152 3153 3154 3154 3155 3157 3158 3159 3160 3161 3161 3162 3162 3162 3163 3163 3163 3163 3163 3162 3161
3126 3126 3126 3127 3128 3128 3129 3129 3131 3133 3135 3137 3139 3140 3141 3142 3143 3144 3145 3145 3146 3147 3148 3150 3150 3151 3153 3154 3155 3156 3157 3158 3158 3159 3159 3159 3160 3161 3161 3161 3160 3159 3158
3122 3122 3123 3124 3125 3125 3126 3127 3127 3129 3131 3133 3134 3136 3137 3138 3139 3139 3141 3141 3142 3143 3145 3147 3147 3148 3149 3150 3151 3152 3153 3154 3154 3155 3155 3155 3157 3157 3157 3157 3157 3157 3156
3117 3118 3120 3120 3121 3121 3121 3122 3123 3124 3126 3127 3128 3129 3133 3134 3134 3134 3135 3137 3137 3138 3140 3142 3143 3144 3145 3146 3147 3148 3149 3150 3150 3151 3151 3152 3153 3154 3153 3153 3153 3153 3153
3110 3113 3115 3116 3116 3117 3117 3117 3117 3118 3119 3120 3121 3123 3126 3129 3131 3130 3129 3131 3132 3133 3133 3136 3138 3138 3140 3141 3143 3143 3144 3145 3146 3146 3147 3148 3149 3149 3150 3149 3149 3149 3149
3103 3104 3104 3107 3110 3111 3112 3111 3112 3112 3113 3114 3114 3115 3117 3120 3120 3122 3125 3124 3125 3127 3128 3129 3132 3134 3135 3136 3137 3138 3138 3139 3140 3141 3142 3142 3143 3144 3145 3145 3145 3145 3145
3099 3100 3100 3100 3101 3104 3105 3106 3106 3107 3107 3107 3106 3107 3107 3110 3110 3113 3117 3118 3119 3118 3122 3122 3125 3128 3129 3130 3131 3132 3133 3134 3135 3135 3136 3137 3138 3139 3140 3140 3140 3140 3140
3094 3095 3096 3097 3096 3094 3095 3096 3097 3097 3099 3098 3098 3100 3099 3100 3101 3104 3107 3108 3109 3111 3112 3114 3117 3119 3122 3123 3123 3124 3126 3127 3128 3129 3130 3131 3133 3134 3135 3134 3135 3135 3135
3089 3090 3091 3088 3090 3088 3087 3086 3087 3088 3089 3088 3089 3090 3091 3091 3091 3091 3094 3096 3097 3098 3101 3107 3109 3110 3112 3115 3116 3116 3118 3120 3122 3123 3124 3126 3127 3128 3129 3129 3129 3129 3129
3081 3081 3082 3081 3082 3080 3079 3077 3076 3077 3078 3078 3079 3079 3081 3079 3080 3080 3083 3083 3086 3092 3093 3094 3097 3100 3101 3105 3107 3109 3109 3112 3114 3116 3118 3119 3121 3122 3123 3122 3123 3124 3124
3070 3071 3071 3072 3072 3070 3068 3066 3065 3064 3063 3067 3068 3069 3071 3070 3071 3071 3070 3071 3072 3076 3080 3082 3086 3089 3092 3095 3098 3099 3099 3102 3107 3108 3110 3111 3113 3115 3116 3116 3116 3117 3117
3058 3058 3059 3061 3061 3058 3058 3056 3054 3052 3052 3054 3056 3057 3059 3058 3058 3058 3057 3058 3060 3062 3066 3067 3071 3074 3079 3082 3085 3088 3090 3093 3094 3099 3101 3103 3105 3107 3109 3109 3109 3109 3109
3052 3049 3047 3047 3047 3048 3047 3046 3044 3040 3040 3042 3041 3041 3042 3045 3046 3045 3043 3043 3045 3046 3051 3054 3057 3057 3062 3068 3072 3076 3080 3083 3085 3089 3092 3094 3096 3098 3100 3101 3101 3102 3103
3043 3041 3040 3038 3037 3036 3035 3035 3033 3029 3027 3025 3026 3024 3028 3028 3030 3031 3030 3027 3030 3030 3030 3034 3041 3044 3049 3054 3059 3064 3066 3070 3075 3078 3082 3084 3086 3087 3089 3091 3093 3095 3096
Wind_Speed
17 18 14 7 4 2 5 2 2 4 4 5 5 5 6 7 7 8 7 7 6 5 4 4 3 3 1 1 2 3 3 5 6 5 5 5 6 7 7 8 9 10 11
16 17 15 9 7 4 3 2 3 5 6 7 7 7 7 7 8 8 7 7 6 6 6 5 6 6 3 2 1 1 3 5 5 4 5 5 6 6 6 7 8 9 10
14 18 14 13 11 10 7 5 5 5 7 9 10 10 10 10 9 9 9 9 8 8 9 9 9 8 5 4 1 1 3 4 5 6 5 5 6 5 6 8 8 9 10
14 18 15 16 15 14 11 8 6 7 8 10 11 12 12 12 12 12 11 11 11 11 12 12 11 9 6 4 3 3 4 5 6 4 3 4 5 6 7 8 9 9 10
20 19 19 20 19 17 14 12 9 7 9 11 11 12 13 13 14 13 13 13 13 15 14 13 13 10 7 5 6 6 7 7 5 3 1 2 4 5 7 7 7 9 10
11 17 19 21 20 19 16 15 13 10 10 11 11 12 12 13 14 14 14 14 15 16 15 14 13 11 8 6 7 7 9 8 6 4 1 1 3 4 6 7 8 10 11
8 6 12 19 22 21 19 18 16 14 12 12 12 11 12 12 13 14 14 14 14 15 15 14 13 11 7 7 7 8 9 8 6 4 3 2 2 4 7 8 10 10 11
4 6 12 14 20 23 23 21 19 17 14 13 14 12 12 12 13 14 14 14 14 13 13 12 12 11 8 7 7 9 8 7 5 4 4 4 4 5 7 9 10 11 11
9 10 10 14 19 26 27 25 22 20 17 15 15 14 13 13 13 13 13 13 14 13 11 11 11 10 8 7 8 9 9 9 7 5 6 6 7 7 9 9 9 10 11
9 9 12 14 17 26 30 30 27 24 20 18 17 16 15 15 15 14 14 13 14 14 12 10 10 9 9 8 9 10 10 10 8 7 8 8 9 9 10 11 12 11 12
12 11 11 13 16 23 30 33 31 27 24 22 20 19 17 16 15 15 15 16 15 15 13 11 11 11 11 10 10 10 11 10 10 9 10 10 11 11 12 13 13 12 12
14 12 12 13 15 19 27 33 33 31 28 26 24 22 18 18 18 18 17 18 17 16 14 12 12 11 11 11 11 11 11 11 11 11 11 12 11 11 13 12 13 12 12
19 16 13 14 14 17 23 29 33 33 31 29 27 24 23 21 20 19 19 18 19 17 15 13 13 12 12 12 11 11 11 12 12 12 13 14 13 13 14 14 13 12 12
18 17 16 14 14 14 16 22 27 30 31 31 31 29 28 24 22 21 21 21 21 20 18 17 15 14 13 13 13 13 12 13 14 14 15 15 15 15 15 16 15 13 13
23 22 19 18 18 18 17 16 24 30 31 33 35 34 33 28 25 24 25 24 24 23 21 19 18 16 16 16 15 15 15 15 15 16 16 16 16 16 17 17 17 15 15
28 27 23 22 23 23 22 21 20 22 29 34 38 38 36 34 30 29 28 28 27 25 24 23 21 19 19 19 18 17 17 17 17 17 17 18 17 17 18 18 18 17 16
24 26 25 27 25 26 27 27 27 23 24 31 37 41 40 37 35 35 33 32 31 30 28 27 26 23 22 21 20 19 19 19 19 19 19 19 19 19 19 20 20 20 19
27 24 28 32 32 31 28 29 29 29 28 28 34 40 42 42 39 40 41 36 35 34 32 30 29 26 25 24 23 22 22 21 21 21 21 21 20 20 21 22 22 22 21
29 29 28 27 30 32 37 38 37 35 33 35 32 37 43 43 47 44 47 41 39 35 37 35 32 31 30 28 26 26 25 24 24 23 22 22 22 21 22 23 24 23 22
26 29 29 30 28 28 33 38 41 41 40 38 36 33 38 45 48 49 50 46 41 39 40 40 37 35 34 32 31 30 30 28 27 26 25 24 23 23 23 23 25 24 23
32 30 32 34 30 33 33 35 37 40 43 44 41 39 35 37 44 52 50 49 48 43 44 42 43 40 40 38 36 34 33 31 30 28 27 25 26 24 23 24 26 25 24
34 35 35 37 38 38 39 40 37 40 45 48 48 44 40 37 38 49 56 53 57 53 54 56 52 46 45 42 40 37 36 35 32 30 29 27 27 26 24 23 26 27 25
35 38 35 34 36 41 45 47 45 44 47 49 49 49 46 45 41 44 54 60 60 60 60 52 54 47 49 47 43 42 39 38 33 32 30 28 28 27 26 25 28 27 26
54 49 43 40 38 40 46 49 54 51 52 49 49 51 53 47 46 48 50 58 63 59 61 53 66 55 55 53 48 45 43 39 38 34 32 30 30 29 28 28 28 28 26
38 40 40 40 39 38 40 45 47 53 53 54 55 56 55 56 50 48 51 54 62 68 68 68 68 60 60 54 51 46 46 41 40 37 34 32 31 30 30 30 30 30 28
39 40 42 44 45 47 45 41 39 48 55 56 56 56 57 57 57 57 55 57 57 65 68 70 67 65 60 52 54 51 49 45 43 40 37 34 34 33 33 32 30 30 28
Wind_Direction
224 221 222 219 220 126 87 81 282 243 221 208 197 190 178 172 172 172 172 175 178 173 187 199 209 221 234 26 21 40 47 54 59 61 74 69 56 51 41 32 32 26 23
226 223 218 217 216 198 134 165 244 245 235 227 225 221 211 207 203 199 201 206 207 213 230 239 256 261 272 289 330 35 55 63 70 76 98 87 66 40 20 12 17 22 19
226 217 225 218 211 207 175 203 222 241 239 232 232 234 232 229 232 229 224 230 233 238 244 248 254 258 263 268 263 153 85 106 99 103 101 69 43 19 11 14 20 25 19
225 213 228 224 212 211 189 204 216 232 243 239 241 241 242 243 243 241 243 244 246 249 255 261 261 264 266 258 241 166 142 134 134 130 75 44 30 16 20 23 20 18 12
244 218 227 225 217 214 201 202 217 227 243 245 242 244 247 249 249 250 252 255 254 254 255 260 263 262 256 237 224 189 152 159 150 138 88 27 35 18 22 19 22 17 8
259 225 225 229 227 221 215 206 215 223 236 248 248 246 249 253 254 252 249 253 257 258 259 257 259 257 247 225 215 200 169 168 168 163 167 321 15 359 13 13 17 12 359
258 264 255 242 236 231 227 218 218 220 231 246 251 252 249 251 253 253 248 246 252 261 260 259 256 250 234 215 210 207 189 185 182 193 205 254 335 337 1 359 1 358 353
286 260 261 265 250 242 239 229 224 224 228 241 247 249 250 244 247 250 250 245 242 247 257 259 262 258 232 214 211 209 212 215 216 230 255 283 311 328 343 350 343 346 352
301 286 258 243 247 247 242 236 230 228 227 236 245 249 249 245 241 244 245 247 241 237 242 255 259 259 246 209 216 232 225 230 240 258 270 284 301 319 330 324 329 341 342
309 309 275 257 247 244 242 237 234 231 229 232 240 247 248 248 244 239 242 239 242 239 238 238 240 239 239 225 222 235 236 239 254 268 278 286 296 310 315 323 332 334 332
293 306 290 271 271 247 241 238 238 236 234 232 236 242 244 248 248 242 238 237 235 238 234 232 236 236 234 236 233 234 244 252 266 273 279 288 298 308 313 320 323 323 328
279 285 291 288 280 257 241 238 240 242 241 239 238 242 244 245 245 243 237 239 237 239 239 233 233 235 241 239 237 235 237 248 259 270 276 281 288 295 298 304 309 316 322
280 266 269 289 286 277 250 240 240 243 246 247 245 244 243 243 245 246 244 241 241 242 242 237 236 237 240 242 243 245 251 260 266 271 276 280 284 287 289 294 299 310 320
276 269 257 257 273 287 272 251 246 247 251 252 251 248 245 243 244 245 244 238 240 240 239 236 235 240 243 245 247 249 252 258 265 269 274 280 284 284 286 288 294 303 313
288 280 267 258 263 278 278 268 258 255 254 253 253 251 247 243 243 241 243 239 237 238 239 241 237 237 241 245 247 250 255 260 264 270 273 277 282 284 283 286 290 298 305
283 286 276 271 261 262 267 271 268 266 261 257 256 252 251 249 242 241 237 239 236 234 238 238 236 234 237 241 246 250 254 258 263 268 272 276 278 280 280 284 285 288 293
281 284 286 286 275 269 271 271 270 267 267 261 261 256 251 249 250 248 239 237 236 232 233 238 240 235 239 242 246 248 250 254 258 263 267 271 275 278 280 280 282 285 290
269 262 267 277 280 275 271 267 272 273 270 275 264 261 250 249 242 250 249 237 235 236 233 235 238 239 239 240 242 246 247 249 253 256 262 266 270 275 279 280 283 286 289
275 274 274 270 273 272 269 267 270 275 275 275 279 264 262 243 244 247 246 243 239 235 241 233 236 239 237 238 241 245 248 249 252 255 257 263 268 272 275 279 281 285 287
276 274 275 276 270 263 264 267 266 267 269 266 272 277 268 260 247 243 242 240 238 240 241 240 234 235 238 237 237 240 244 246 249 254 258 261 265 269 273 277 280 283 285
283 282 279 271 271 271 266 264 266 265 267 266 268 271 271 272 257 245 239 237 236 232 239 244 239 235 236 236 237 238 243 246 249 252 256 261 265 267 271 277 281 280 282
290 290 286 282 280 276 271 268 259 262 265 266 265 265 266 264 266 257 244 239 236 239 238 240 238 235 237 237 238 240 242 245 247 252 257 260 265 267 269 270 277 277 277
295 297 291 289 285 280 272 270 263 255 258 261 261 262 262 264 262 266 251 245 237 239 237 236 243 242 240 239 239 241 241 244 248 249 254 257 260 261 265 269 269 269 272
294 295 291 289 285 278 276 271 268 269 261 263 263 265 263 263 261 264 258 245 239 235 235 232 236 231 241 240 238 239 242 244 245 247 249 255 258 260 262 262 263 263 263
288 290 295 294 293 287 278 273 270 274 268 266 260 259 259 259 259 258 264 247 244 243 236 233 239 229 234 236 238 238 243 244 245 248 249 250 253 254 256 256 257 260 260
291 294 295 297 294 291 292 285 276 264 272 265 267 261 261 258 259 258 259 258 248 243 239 229 230 231 235 237 238 237 240 243 246 246 247 248 250 248 250 251 252 254 257